• Processing (Info)

  • MPEC 2020-V90 : 2020 VH2

    The following Minor Planet Electronic Circular may be linked-to from your own Web pages, but must not otherwise be redistributed electronically.

    A form allowing access to any MPEC is at the bottom of this page.


    Read MPEC 2020-V89 Read MPEC 2020-V91


    M.P.E.C. 2020-V90                             Issued 2020 November 12, 09:50 UT
    
         The Minor Planet Electronic Circulars contain information on unusual
             minor planets and routine data on comets.  They are published
        on behalf of Division F of the International Astronomical Union by the
              Minor Planet Center, Smithsonian Astrophysical Observatory,
                              Cambridge, MA 02138, U.S.A.
    
                 Prepared using the Tamkin Foundation Computer Network
    
                                  MPC@CFA.HARVARD.EDU
                URL https://www.minorplanetcenter.net/    ISSN 1523-6714
    
                                    2020 VH2                                 
    
    
    Observations:
         K20V02H*HC2020 11 11.31871604 13 00.05 +22 06 15.7                VEV090G96
         K20V02H HC2020 11 11.32388004 12 58.52 +22 08 30.4          20.35GVEV090G96
         K20V02H HC2020 11 11.33418704 12 55.48 +22 12 59.7          20.61GVEV090G96
         K20V02H KC2020 11 11.45291204 12 22.93 +23 02 00.3          21.23GVEV090I52
         K20V02H KC2020 11 11.45439304 12 22.59 +23 02 34.2          20.98GVEV090I52
         K20V02H KC2020 11 11.45587804 12 22.19 +23 03 10.8          21.05GVEV090I52
         K20V02H KC2020 11 11.47047604 12 18.78 +23 08 54.2          20.74GVEV090G96
         K20V02H KC2020 11 11.47105704 12 18.61 +23 09 07.7          20.60GVEV090G96
         K20V02H KC2020 11 11.47163704 12 18.53 +23 09 21.6          20.40GVEV090G96
         K20V02H KC2020 11 11.47221604 12 18.36 +23 09 34.4          20.55GVEV090G96
         K20V02H  C2020 11 11.53347704 12 18.302+23 35 38.46         19.79GVEV090F51
         K20V02H  C2020 11 11.54655104 12 14.727+23 40 36.73         20.34GVEV090F51
         K20V02H KC2020 11 12.27495504 11 11.05 +27 35 40.0          20.9 VuEV090H21
         K20V02H KC2020 11 12.27613104 11 19.21 +27 36 29.9          20.39GVEV090I52
         K20V02H KC2020 11 12.27787304 11 10.40 +27 36 27.3          21.3 VuEV090H21
         K20V02H KC2020 11 12.27978904 11 18.37 +27 37 31.0          21.05GVEV090I52
         K20V02H KC2020 11 12.28176404 11 09.58 +27 37 30.9          21.5 VuEV090H21
         K20V02H KC2020 11 12.28344304 11 17.60 +27 38 32.1          20.86GVEV090I52
    
    Observer details:
    F51 Pan-STARRS 1, Haleakala.  Observers J. Bulger, K. Chambers, T. Lowe, A.
        Schultz, M. Willman.  Measurers S. Chastel, M. Huber, Y. Ramanjooloo, R.
        Wainscoat, R. Weryk.  1.8-m Ritchey-Chretien + CCD.
    G96 Mt. Lemmon Survey.  Observer K. W. Wierzchos.  Measurers E. J.
        Christensen, G. A. Farneth, D. C. Fuls, A. R. Gibbs, A. D. Grauer, H.
        Groeller, R. A. Kowalski, S. M. Larson, G. J. Leonard, T. A. Pruyne, D.
        Rankin, R. L. Seaman, F. C. Shelly, K. W. Wierzchos.  1.5-m reflector +
        10K CCD.
    H21 Astronomical Research Observatory, Westfield.  Observer R. Holmes.
        Measurers S. Foglia, L. Buzzi, T. Linder, R. Holmes.  0.81-m f/4.0
        astrograph + CCD.
    I52 Steward Observatory, Mt. Lemmon Station.  Observer E. J. Christensen.
        Measurers E. J. Christensen, G. A. Farneth, D. C. Fuls, A. R. Gibbs, A. D.
        Grauer, H. Groeller, R. A. Kowalski, S. M. Larson, G. J. Leonard, T. A.
        Pruyne, D. Rankin, R. L. Seaman, F. C. Shelly, K. W. Wierzchos.  1.0-m
        reflector + CCD.
    
    Orbital elements:
    2020 VH2                                                 Earth MOID = 0.0087 AU
    Epoch 2020 Dec. 17.0 TT = JDT 2459200.5                 Bell                    
    M  37.52493              (2000.0)            P               Q                  
    n   0.49963678     Peri.  309.96550     +0.99434842     +0.01765813             
    a   1.5728952      Node    49.29007     +0.03457878     +0.87843493             
    e   0.4270492      Incl.    7.93826     -0.10037691     +0.47753562             
    P   1.97           H   28.29          G   0.15           U   8                  
    Residuals in seconds of arc
    201111 G96  0.1-  0.2-    201111 G96  0.2+  0.3-    201112 H21  0.1-  0.3+
    201111 G96  0.3-  0.4-    201111 G96  0.3-  0.4-    201112 I52  0.3+  0.0+
    201111 G96  0.5-  1.2+    201111 G96  0.4+  0.1-    201112 H21  0.3-  0.2-
    201111 I52  0.3+  0.1-    201111 G96  0.1-  0.9-    201112 I52  0.1-  0.0+
    201111 I52  0.6+  1.3-    201111 F51  0.0+  0.1-    201112 H21  0.0+  0.3-
    201111 I52  0.0+  0.1+    201111 F51  0.0+  0.3+    201112 I52  0.5+  0.3+
    
    Ephemeris:
    2020 VH2                 a,e,i = 1.57, 0.43, 8                   q = 0.9012
    Date    TT    R. A. (2000) Decl.     Delta      r    Elong.  Phase     V
    2020 10 13    15 49 51.1 -48 08 18   0.1598  0.9086    52.2   119.8    28.9
    ...
    2020 10 28    15 57 39.8 -54 18 48   0.06821 0.9477    46.3   130.7    28.1
    ...
    2020 11 05    15 36 44.4 -71 43 40   0.02134 0.9799    56.7   122.3    24.9
    ...
    2020 11 11    04 13 40.5 +19 36 32   0.01886 1.0082   163.6    16.1    20.6
    2020 11 12    04 11 37.8 +26 16 42   0.02434 1.0132   163.2    16.4    21.1
    2020 11 13    04 10 10.2 +30 27 05   0.03005 1.0182   162.0    17.4    21.6
    ...
    2020 11 19    04 05 45.0 +39 34 48   0.06594 1.0501   159.0    19.7    23.5
    ...
    2020 11 27    04 03 24.6 +42 12 51   0.1163  1.0959   158.8    19.0    24.8
    ...
    2020 12 12    04 04 02.4 +42 18 20   0.2202  1.1885   155.5    20.1    26.4
    
    M. P. C. Staff               (C) Copyright 2020 MPC           M.P.E.C. 2020-V90
    


    Read MPEC 2020-V89 Read MPEC 2020-V91


    MPEC number:

    Enter an MPEC number in one of the following forms:

    • 1997-B01 (the full form)
    • J97B01 (the packed version of the full form)
    • B01 (the abbreviated form)